This demonstration page uses our WeatherBlox Daily Observations layout. Learn more.

Left ArrowRight Arrow

34.02893, -84.19858

Hourly Observations for October 17, 2015

Temp ( °F °C ) Dew Point ( °F °C ) Humidity (%) Winds ( mph kmh ) Pressure ( in mb ) Visibility ( mi km ) Precip ( " mm )
12:53 am 00:53 Clear 51 10.6 36 2.2 56 56 N 6 9 30.19 1023 10 16 0.00 0.00
1:53 am 01:53 Clear 49 9.4 36 2.2 61 61 N 6 9 30.19 1022 10 16 0.00 0.00
2:53 am 02:53 Clear 48 8.9 36 2.2 63 63 N 6 9 30.20 1023 10 16 0.00 0.00
3:53 am 03:53 Clear 48 8.9 36 2.2 63 63 NNW 5 7 30.19 1022 10 16 0.00 0.00
4:53 am 04:53 Clear 44 6.7 37 2.8 76 76 Calm 30.19 1022 10 16 0.00 0.00
5:53 am 05:53 Clear 41 5 38 3.3 89 89 Calm 30.21 1023 10 16 0.00 0.00
6:53 am 06:53 Clear 39 3.9 38 3.3 96 96 Calm 30.23 1024 10 16 0.00 0.00
7:53 am 07:53 Sunny 40 4.4 38 3.3 93 93 Calm 30.25 1024 10 16 0.00 0.00
8:53 am 08:53 Sunny 48 8.9 42 5.6 80 80 Calm 30.26 1025 10 16 0.00 0.00
9:53 am 09:53 Sunny 54 12.2 40 4.4 59 59 VRB 3 6 30.28 1026 10 16 0.00 0.00
10:53 am 10:53 Sunny 60 15.6 37 2.8 42 42 WNW 3 6 30.28 1025 10 16 0.00 0.00
11:53 am 11:53 Sunny 65 18.3 35 1.7 33 33 NNW 7 11 30.27 1025 10 16 0.00 0.00
12:53 pm 12:53 Sunny 66 18.9 36 2.2 33 33 NW 6 9 30.25 1024 10 16 0.00 0.00
1:53 pm 13:53 Sunny 68 20 37 2.8 32 32 NW 10 17 30.23 1024 10 16 0.00 0.00
2:53 pm 14:53 Sunny 69 20.6 26 -3.3 20 20 NW 13 20 30.21 1023 10 16 0.00 0.00
3:53 pm 15:53 Sunny 68 20 33 0.6 27 27 WNW 13 20 30.21 1023 10 16 0.00 0.00
4:53 pm 16:53 Sunny 66 18.9 32 0 28 28 NW 12 19 30.21 1023 10 16 0.00 0.00
5:53 pm 17:53 Sunny 64 17.8 32 0 30 30 NW 14 22 30.22 1023 10 16 0.00 0.00
6:53 pm 18:53 Sunny 60 15.6 33 0.6 36 36 NW 10 17 30.23 1024 10 16 0.00 0.00
7:53 pm 19:53 Clear 57 13.9 34 1.1 42 42 NNW 7 11 30.25 1024 10 16 0.00 0.00
8:53 pm 20:53 Clear 56 13.3 35 1.7 46 46 N 9 15 30.25 1025 10 16 0.00 0.00
9:53 pm 21:53 Clear 55 12.8 35 1.7 47 47 NNW 9 15 30.26 1025 10 16 0.00 0.00
10:53 pm 22:53 Clear 53 11.7 35 1.7 51 51 NNW 10 17 30.27 1025 10 16 0.00 0.00
11:53 pm 23:53 Clear 52 11.1 34 1.1 50 50 N 9 15 30.25 1025 10 16 0.00 0.00

Powered by AerisWeather